This demonstration page uses our WeatherBlox Daily Observations layout. Learn more.

Left ArrowRight Arrow

Hourly Observations for January 27, 2016

Temp ( °F °C ) Dew Point ( °F °C ) Humidity (%) Winds ( mph kmh ) Pressure ( in mb ) Visibility ( mi km ) Precip ( " mm )
12:53 am 00:53 Clear 26 -3.3 22 -5.6 84 84 WSW 3 6 30.25 1024 10 16 0.00 0.00
1:53 am 01:53 Clear 25 -3.9 21 -6.1 85 85 WSW 5 7 30.24 1024 10 16 0.00 0.00
2:53 am 02:53 Clear 25 -3.9 19 -7.2 78 78 WSW 5 7 30.24 1024 10 16 0.00 0.00
3:53 am 03:53 Clear 24 -4.4 19 -7.2 81 81 WSW 5 7 30.22 1024 10 16 0.00 0.00
4:53 am 04:53 Clear 24 -4.4 18 -7.8 77 77 SW 3 6 30.20 1023 10 16 0.00 0.00
5:53 am 05:53 Clear 24 -4.4 17 -8.3 75 75 SW 5 7 30.20 1023 10 16 0.00 0.00
6:53 am 06:53 Clear 24 -4.4 17 -8.3 75 75 SSW 7 11 30.19 1022 10 16 0.00 0.00
7:53 am 07:53 Sunny 23 -5 17 -8.3 78 78 WSW 6 9 30.20 1023 10 16 0.00 0.00
8:53 am 08:53 Sunny 26 -3.3 20 -6.7 78 78 WSW 8 13 30.17 1022 10 16 0.00 0.00
9:53 am 09:53 Sunny 31 -0.6 24 -4.4 76 76 WSW 8 13 30.15 1021 10 16 0.00 0.00
10:53 am 10:53 Sunny 36 2.2 27 -2.8 70 70 WSW 9 15 30.15 1021 10 16 0.00 0.00
11:53 am 11:53 Sunny 39 3.9 27 -2.8 62 62 W 10 17 30.13 1020 10 16 0.00 0.00
12:53 pm 12:53 Sunny 42 5.6 29 -1.7 60 60 W 10 17 30.11 1020 10 16 0.00 0.00
1:53 pm 13:53 Sunny 46 7.8 31 -0.6 56 56 W 13 20 30.07 1018 10 16 0.00 0.00
2:53 pm 14:53 Mostly Sunny 49 9.4 33 0.6 55 55 NW 14 22 30.06 1018 10 16 0.00 0.00
3:53 pm 15:53 Cloudy 48 8.9 34 1.1 58 58 NNW 8 13 30.06 1018 10 16 0.00 0.00
4:53 pm 16:53 Mostly Cloudy 46 7.8 34 1.1 63 63 NNW 10 17 30.08 1019 10 16 0.00 0.00
5:53 pm 17:53 Clear 40 4.4 32 0 73 73 NNW 8 13 30.10 1019 10 16 0.00 0.00
6:53 pm 18:53 Clear 34 1.1 30 -1.1 85 85 WNW 6 9 30.12 1020 10 16 0.00 0.00
7:53 pm 19:53 Clear 35 1.7 30 -1.1 82 82 WNW 8 13 30.12 1020 10 16 0.00 0.00
8:53 pm 20:53 Clear 32 0 28 -2.2 85 85 WNW 8 13 30.12 1020 10 16 0.00 0.00
9:53 pm 21:53 Mostly Cloudy 37 2.8 30 -1.1 76 76 W 9 15 30.10 1019 10 16 0.00 0.00
10:53 pm 22:53 Clear 38 3.3 28 -2.2 68 68 W 8 13 30.07 1018 10 16 0.00 0.00
11:53 pm 23:53 Clear 37 2.8 28 -2.2 70 70 W 12 19 30.07 1018 10 16 0.00 0.00

Powered by AerisWeather